Temp: 12.1°C   Baro: 1005.6mb
  Wind: 14.1mph   Dir: W (266°)
  Rain: 7.6mm (0.0mm/hr)
  Solar: 107W/m2  Hum: 90%
 
Bath Spa Weather Historical Data
Daily Summary for February 15, 2020 Units:  Metric    English   Both
Next Day »
Daily Weekly Monthly Yearly Custom
  High: Low: Average:
Temperature: 13.4 °C 10.9 °C 12.1 °C
Dew Point: 11.8 °C 9.8 °C 10.7 °C
Humidity: 94% 88% 91%
Wind Speed: 50.0km/h 1.4km/h 17.3km/h
Wind Gust: 61.1km/h - -
Wind direction- - SSW
Pressure: 1012.8 hPa 992.4 hPa -
Precipitation: 11.4 mm    
Historical Graphs
 
 
Tabular Data for February 15, 2020
Time Temperature Dew Point Pressure Wind direction Wind Speed Wind Gust Humidity Rainfall Rate (Hourly) solar
00:00 11.1 °C 10.2 °C 1012.8 hPa SSW 4.7 km/h 11.3 km/h 94% 1.3 mm 0.00 W/m2
00:05 11.1 °C 10.2 °C 1012.8 hPa SW 4.7 km/h 8.0 km/h 94% 1.0 mm 0.00 W/m2
00:10 11.1 °C 10.2 °C 1012.8 hPa SW 7.9 km/h 9.7 km/h 94% 0.8 mm 0.00 W/m2
00:15 11.1 °C 10.2 °C 1012.4 hPa SW 3.2 km/h 11.3 km/h 94% 0.8 mm 0.00 W/m2
00:20 11.2 °C 10.3 °C 1012.4 hPa SW 12.9 km/h 12.9 km/h 94% 0.5 mm 0.00 W/m2
00:25 11.2 °C 10.1 °C 1012.8 hPa SSW 7.9 km/h 8.0 km/h 93% 0.3 mm 0.00 W/m2
00:30 11.2 °C 10.1 °C 1012.8 hPa SW 11.1 km/h 14.5 km/h 93% 0.0 mm 0.00 W/m2
00:35 11.2 °C 10.1 °C 1012.8 hPa WSW 9.7 km/h 14.5 km/h 93% 0.0 mm 0.00 W/m2
00:40 11.2 °C 10.1 °C 1012.8 hPa SW 13.0 km/h 14.5 km/h 93% 0.0 mm 0.00 W/m2
00:46 11.2 °C 10.1 °C 1012.4 hPa SW 6.4 km/h 20.9 km/h 93% 0.0 mm 0.00 W/m2
00:50 11.2 °C 10.1 °C 1012.4 hPa SSW 7.9 km/h 12.9 km/h 93% 0.0 mm 0.00 W/m2
00:55 11.2 °C 10.1 °C 1012.4 hPa SW 9.7 km/h 14.5 km/h 93% 0.3 mm 0.00 W/m2
01:00 11.2 °C 10.1 °C 1012.4 hPa SSW 7.9 km/h 17.7 km/h 93% 0.3 mm 0.00 W/m2
01:05 11.1 °C 10.0 °C 1012.4 hPa SSW 4.7 km/h 12.9 km/h 93% 0.3 mm 0.00 W/m2
01:10 11.1 °C 10.0 °C 1012.1 hPa West 6.4 km/h 9.7 km/h 93% 0.3 mm 0.00 W/m2
01:15 11.1 °C 10.0 °C 1012.1 hPa South 6.4 km/h 9.7 km/h 93% 0.3 mm 0.00 W/m2
01:20 11.1 °C 10.0 °C 1011.7 hPa WSW 7.9 km/h 11.3 km/h 93% 0.3 mm 0.00 W/m2
01:25 11.1 °C 10.0 °C 1011.7 hPa SSW 7.9 km/h 9.7 km/h 93% 0.3 mm 0.00 W/m2
01:30 11.1 °C 10.0 °C 1011.7 hPa SSW 4.7 km/h 14.5 km/h 93% 0.3 mm 0.00 W/m2
01:35 11.1 °C 10.0 °C 1011.7 hPa WSW 9.7 km/h 19.3 km/h 93% 0.3 mm 0.00 W/m2
01:40 11.1 °C 10.0 °C 1011.7 hPa SSW 6.4 km/h 9.7 km/h 93% 0.3 mm 0.00 W/m2
01:45 11.0 °C 9.9 °C 1011.7 hPa SSW 3.2 km/h 9.7 km/h 93% 0.3 mm 0.00 W/m2
01:50 10.9 °C 9.8 °C 1011.7 hPa SSW 4.7 km/h 11.3 km/h 93% 0.3 mm 0.00 W/m2
01:55 10.9 °C 10.0 °C 1011.4 hPa SSW 1.4 km/h 11.3 km/h 94% 0.0 mm 0.00 W/m2
02:00 10.9 °C 10.0 °C 1011.7 hPa SW 4.7 km/h 11.3 km/h 94% 0.0 mm 0.00 W/m2
02:05 10.9 °C 10.0 °C 1011.4 hPa SW 11.1 km/h 11.3 km/h 94% 0.0 mm 0.00 W/m2
02:10 10.9 °C 10.0 °C 1011.4 hPa WSW 9.7 km/h 16.1 km/h 94% 0.0 mm 0.00 W/m2
02:15 10.9 °C 10.0 °C 1011.4 hPa WSW 6.4 km/h 16.1 km/h 94% 0.0 mm 0.00 W/m2
02:20 10.9 °C 10.0 °C 1011.4 hPa WSW 6.4 km/h 9.7 km/h 94% 0.0 mm 0.00 W/m2
02:25 10.9 °C 10.0 °C 1011.1 hPa SW 7.9 km/h 16.1 km/h 94% 0.0 mm 0.00 W/m2
02:30 10.9 °C 10.0 °C 1011.1 hPa South 9.7 km/h 14.5 km/h 94% 0.0 mm 0.00 W/m2
02:35 10.9 °C 10.0 °C 1011.1 hPa WSW 4.7 km/h 14.5 km/h 94% 0.0 mm 0.00 W/m2
02:40 11.0 °C 10.1 °C 1010.7 hPa SW 6.4 km/h 14.5 km/h 94% 0.0 mm 0.00 W/m2
02:45 11.1 °C 10.2 °C 1010.7 hPa South 6.4 km/h 14.5 km/h 94% 0.0 mm 0.00 W/m2
02:50 11.1 °C 10.2 °C 1010.7 hPa South 6.4 km/h 16.1 km/h 94% 0.0 mm 0.00 W/m2
02:55 11.1 °C 10.2 °C 1010.7 hPa SW 7.9 km/h 14.5 km/h 94% 0.0 mm 0.00 W/m2
03:00 11.1 °C 10.2 °C 1010.7 hPa SW 11.1 km/h 12.9 km/h 94% 0.0 mm 0.00 W/m2
03:05 11.2 °C 10.3 °C 1010.4 hPa SW 11.1 km/h 12.9 km/h 94% 0.0 mm 0.00 W/m2
03:10 11.2 °C 10.3 °C 1010.4 hPa SSE 6.4 km/h 19.3 km/h 94% 0.0 mm 0.00 W/m2
03:15 11.2 °C 10.3 °C 1010.0 hPa SW 11.1 km/h 19.3 km/h 94% 0.0 mm 0.00 W/m2
03:20 11.3 °C 10.4 °C 1010.0 hPa SW 11.1 km/h 17.7 km/h 94% 0.0 mm 0.00 W/m2
03:25 11.3 °C 10.4 °C 1010.0 hPa South 4.7 km/h 24.1 km/h 94% 0.0 mm 0.00 W/m2
03:30 11.3 °C 10.4 °C 1010.0 hPa SSW 4.7 km/h 20.9 km/h 94% 0.0 mm 0.00 W/m2
03:35 11.3 °C 10.4 °C 1010.0 hPa South 11.1 km/h 16.1 km/h 94% 0.0 mm 0.00 W/m2
03:40 11.3 °C 10.4 °C 1009.7 hPa SW 7.9 km/h 20.9 km/h 94% 0.0 mm 0.00 W/m2
03:45 11.4 °C 10.5 °C 1009.4 hPa South 11.1 km/h 27.4 km/h 94% 0.0 mm 0.00 W/m2
03:50 11.4 °C 10.5 °C 1009.7 hPa WSW 16.3 km/h 24.1 km/h 94% 0.0 mm 0.00 W/m2
03:55 11.5 °C 10.6 °C 1009.7 hPa SW 11.1 km/h 19.3 km/h 94% 0.0 mm 0.00 W/m2
04:00 11.5 °C 10.6 °C 1009.4 hPa SW 13.0 km/h 14.5 km/h 94% 0.0 mm 0.00 W/m2
04:05 11.6 °C 10.7 °C 1009.4 hPa SW 16.3 km/h 19.3 km/h 94% 0.3 mm 0.00 W/m2
04:10 11.6 °C 10.5 °C 1009.0 hPa SSW 7.9 km/h 19.3 km/h 93% 0.3 mm 0.00 W/m2
04:15 11.6 °C 10.5 °C 1009.0 hPa South 13.0 km/h 20.9 km/h 93% 0.3 mm 0.00 W/m2
04:20 11.6 °C 10.5 °C 1009.0 hPa SSW 11.1 km/h 19.3 km/h 93% 0.3 mm 0.00 W/m2
04:25 11.7 °C 10.6 °C 1009.0 hPa South 6.4 km/h 16.1 km/h 93% 0.3 mm 0.00 W/m2
04:30 11.7 °C 10.6 °C 1009.0 hPa SSW 14.3 km/h 25.7 km/h 93% 0.3 mm 0.00 W/m2
04:35 11.7 °C 10.6 °C 1009.0 hPa SSE 7.9 km/h 19.3 km/h 93% 0.3 mm 0.00 W/m2
04:40 11.7 °C 10.6 °C 1009.0 hPa SSW 13.0 km/h 24.1 km/h 93% 0.3 mm 0.00 W/m2
04:45 11.8 °C 10.7 °C 1008.7 hPa SW 19.5 km/h 30.6 km/h 93% 0.3 mm 0.00 W/m2
04:50 11.8 °C 10.7 °C 1008.7 hPa WSW 22.7 km/h 30.6 km/h 93% 0.3 mm 0.00 W/m2
04:55 11.8 °C 10.7 °C 1008.4 hPa SW 6.4 km/h 19.3 km/h 93% 0.3 mm 0.00 W/m2
05:00 11.8 °C 10.5 °C 1008.4 hPa SW 17.7 km/h 19.3 km/h 92% 0.3 mm 0.00 W/m2
05:05 11.8 °C 10.5 °C 1008.4 hPa SSW 13.0 km/h 17.7 km/h 92% 0.0 mm 0.00 W/m2
05:10 11.7 °C 10.4 °C 1008.4 hPa SSW 14.3 km/h 25.7 km/h 92% 0.0 mm 0.00 W/m2
05:15 11.8 °C 10.5 °C 1008.4 hPa SW 13.0 km/h 37.0 km/h 92% 0.0 mm 0.00 W/m2
05:20 11.8 °C 10.5 °C 1008.4 hPa South 16.3 km/h 30.6 km/h 92% 0.0 mm 0.00 W/m2
05:25 11.8 °C 10.5 °C 1008.4 hPa SSE 13.0 km/h 27.4 km/h 92% 0.0 mm 0.00 W/m2
05:30 11.8 °C 10.5 °C 1008.4 hPa SW 22.7 km/h 33.8 km/h 92% 0.0 mm 0.00 W/m2
05:35 11.7 °C 10.4 °C 1008.4 hPa SW 11.1 km/h 32.2 km/h 92% 0.0 mm 0.00 W/m2
05:40 11.7 °C 10.4 °C 1008.4 hPa South 19.5 km/h 33.8 km/h 92% 0.0 mm 0.00 W/m2
05:45 11.7 °C 10.4 °C 1008.4 hPa WSW 14.3 km/h 25.7 km/h 92% 0.0 mm 0.00 W/m2
05:50 11.8 °C 10.5 °C 1008.4 hPa SW 1.4 km/h 20.9 km/h 92% 0.0 mm 0.00 W/m2
05:55 11.8 °C 10.5 °C 1008.0 hPa WSW 11.1 km/h 27.4 km/h 92% 0.0 mm 0.00 W/m2
06:00 11.9 °C 10.6 °C 1008.0 hPa SW 11.1 km/h 35.4 km/h 92% 0.0 mm 0.00 W/m2
06:05 11.9 °C 10.6 °C 1007.7 hPa South 22.7 km/h 27.4 km/h 92% 0.0 mm 0.00 W/m2
06:10 11.9 °C 10.6 °C 1007.7 hPa South 7.9 km/h 38.6 km/h 92% 0.0 mm 0.00 W/m2
06:15 11.9 °C 10.6 °C 1007.7 hPa SSW 14.3 km/h 35.4 km/h 92% 0.0 mm 0.00 W/m2
06:20 11.8 °C 10.4 °C 1007.3 hPa SW 27.4 km/h 33.8 km/h 91% 0.0 mm 0.00 W/m2
06:25 11.8 °C 10.5 °C 1007.0 hPa South 16.3 km/h 40.2 km/h 92% 0.0 mm 0.00 W/m2
06:30 11.8 °C 10.5 °C 1007.0 hPa South 11.1 km/h 30.6 km/h 92% 0.0 mm 0.00 W/m2
06:35 11.8 °C 10.5 °C 1006.7 hPa SW 19.5 km/h 37.0 km/h 92% 0.0 mm 0.00 W/m2
06:40 11.9 °C 10.5 °C 1006.7 hPa WSW 13.0 km/h 33.8 km/h 91% 0.0 mm 0.00 W/m2
06:45 11.9 °C 10.5 °C 1007.0 hPa SW 40.4 km/h 43.4 km/h 91% 0.0 mm 0.00 W/m2
06:50 12.0 °C 10.6 °C 1007.0 hPa SSW 11.1 km/h 38.6 km/h 91% 0.0 mm 0.00 W/m2
06:55 12.0 °C 10.6 °C 1007.0 hPa SW 9.7 km/h 40.2 km/h 91% 0.0 mm 0.00 W/m2
07:00 11.9 °C 10.5 °C 1007.0 hPa SSE 17.7 km/h 37.0 km/h 91% 0.0 mm 0.00 W/m2
07:05 11.9 °C 10.5 °C 1007.0 hPa South 13.0 km/h 40.2 km/h 91% 0.0 mm 0.00 W/m2
07:10 11.9 °C 10.5 °C 1007.0 hPa SW 16.3 km/h 32.2 km/h 91% 0.0 mm 0.00 W/m2
07:15 11.9 °C 10.5 °C 1006.7 hPa West 16.3 km/h 27.4 km/h 91% 0.0 mm 0.00 W/m2
07:20 11.8 °C 10.4 °C 1007.0 hPa SSW 22.7 km/h 32.2 km/h 91% 0.0 mm 0.00 W/m2
07:25 11.8 °C 10.5 °C 1007.0 hPa SSW 9.7 km/h 33.8 km/h 92% 0.0 mm 0.00 W/m2
07:30 11.7 °C 10.4 °C 1006.7 hPa South 14.3 km/h 30.6 km/h 92% 0.0 mm 0.00 W/m2
07:35 11.7 °C 10.4 °C 1006.7 hPa SSW 14.3 km/h 37.0 km/h 92% 0.0 mm 0.00 W/m2
07:40 11.7 °C 10.4 °C 1006.3 hPa South 16.3 km/h 32.2 km/h 92% 0.0 mm 0.00 W/m2
07:45 11.7 °C 10.4 °C 1006.3 hPa South 14.3 km/h 35.4 km/h 92% 0.0 mm 0.00 W/m2
07:50 11.7 °C 10.3 °C 1006.3 hPa WSW 25.9 km/h 35.4 km/h 91% 0.0 mm 5.00 W/m2
07:55 11.8 °C 10.4 °C 1006.3 hPa SSW 13.0 km/h 35.4 km/h 91% 0.0 mm 7.00 W/m2
08:00 11.8 °C 10.4 °C 1006.3 hPa SSE 20.9 km/h 43.4 km/h 91% 0.0 mm 9.00 W/m2
08:05 11.9 °C 10.5 °C 1006.3 hPa South 25.9 km/h 49.9 km/h 91% 0.0 mm 14.00 W/m2
08:10 11.9 °C 10.3 °C 1006.3 hPa South 13.0 km/h 35.4 km/h 90% 0.0 mm 12.00 W/m2
08:15 11.9 °C 10.3 °C 1006.3 hPa SW 9.7 km/h 38.6 km/h 90% 0.0 mm 12.00 W/m2
08:20 11.9 °C 10.3 °C 1006.3 hPa South 30.6 km/h 43.4 km/h 90% 0.0 mm 12.00 W/m2
08:25 11.9 °C 10.1 °C 1006.3 hPa SW 30.6 km/h 40.2 km/h 89% 0.0 mm 9.00 W/m2
08:30 11.9 °C 10.1 °C 1006.3 hPa WSW 25.9 km/h 32.2 km/h 89% 0.0 mm 11.00 W/m2
08:35 11.9 °C 10.1 °C 1006.3 hPa SW 22.7 km/h 25.7 km/h 89% 0.0 mm 12.00 W/m2
08:40 11.8 °C 10.2 °C 1006.0 hPa South 22.7 km/h 29.0 km/h 90% 0.0 mm 16.00 W/m2
08:45 11.8 °C 10.2 °C 1006.0 hPa SSW 11.1 km/h 27.4 km/h 90% 0.0 mm 14.00 W/m2
08:50 11.9 °C 10.1 °C 1006.0 hPa WSW 9.7 km/h 40.2 km/h 89% 0.3 mm 12.00 W/m2
08:55 11.9 °C 10.1 °C 1006.0 hPa SSW 13.0 km/h 33.8 km/h 89% 0.3 mm 18.00 W/m2
09:00 11.9 °C 10.1 °C 1005.6 hPa South 20.9 km/h 37.0 km/h 89% 0.3 mm 28.00 W/m2
09:05 11.9 °C 10.1 °C 1005.6 hPa South 11.1 km/h 35.4 km/h 89% 0.3 mm 26.00 W/m2
09:10 11.8 °C 10.0 °C 1005.6 hPa SW 11.1 km/h 25.7 km/h 89% 0.3 mm 25.00 W/m2
09:15 11.9 °C 10.3 °C 1005.6 hPa South 11.1 km/h 41.8 km/h 90% 0.3 mm 28.00 W/m2
09:20 11.8 °C 10.2 °C 1005.6 hPa SW 13.0 km/h 37.0 km/h 90% 0.3 mm 32.00 W/m2
09:25 11.8 °C 10.2 °C 1005.3 hPa SW 22.7 km/h 29.0 km/h 90% 0.3 mm 26.00 W/m2
09:30 11.8 °C 10.2 °C 1005.3 hPa South 13.0 km/h 37.0 km/h 90% 0.3 mm 18.00 W/m2
09:35 11.8 °C 10.2 °C 1005.0 hPa WSW 7.9 km/h 25.7 km/h 90% 0.3 mm 16.00 W/m2
09:40 11.8 °C 10.2 °C 1005.0 hPa SW 11.1 km/h 45.1 km/h 90% 0.3 mm 16.00 W/m2
09:45 11.8 °C 10.4 °C 1005.0 hPa South 16.3 km/h 25.7 km/h 91% 0.3 mm 21.00 W/m2
09:50 11.8 °C 10.4 °C 1004.6 hPa South 28.8 km/h 33.8 km/h 91% 0.3 mm 32.00 W/m2
09:55 11.8 °C 10.4 °C 1004.6 hPa SSW 7.9 km/h 24.1 km/h 91% 0.3 mm 47.00 W/m2
10:00 11.8 °C 10.4 °C 1004.6 hPa SSW 16.3 km/h 27.4 km/h 91% 0.3 mm 44.00 W/m2
10:05 11.8 °C 10.4 °C 1004.6 hPa SSW 20.9 km/h 33.8 km/h 91% 0.3 mm 46.00 W/m2
10:10 11.8 °C 10.4 °C 1004.3 hPa SSW 11.1 km/h 25.7 km/h 91% 0.3 mm 21.00 W/m2
10:15 11.9 °C 10.5 °C 1004.3 hPa SW 6.4 km/h 38.6 km/h 91% 0.3 mm 35.00 W/m2
10:20 11.9 °C 10.3 °C 1004.3 hPa SSW 7.9 km/h 32.2 km/h 90% 0.3 mm 42.00 W/m2
10:25 11.8 °C 10.4 °C 1004.3 hPa WSW 27.4 km/h 27.4 km/h 91% 0.3 mm 25.00 W/m2
10:30 11.8 °C 10.4 °C 1004.3 hPa South 19.5 km/h 19.3 km/h 91% 0.5 mm 44.00 W/m2
10:35 11.8 °C 10.4 °C 1004.3 hPa SW 17.7 km/h 35.4 km/h 91% 0.5 mm 26.00 W/m2
10:40 11.7 °C 10.3 °C 1004.3 hPa SSW 13.0 km/h 29.0 km/h 91% 0.8 mm 40.00 W/m2
10:45 11.7 °C 10.3 °C 1003.9 hPa SSE 13.0 km/h 25.7 km/h 91% 1.0 mm 23.00 W/m2
10:50 11.7 °C 10.3 °C 1003.9 hPa West 14.3 km/h 30.6 km/h 91% 0.8 mm 26.00 W/m2
10:55 11.8 °C 10.4 °C 1003.9 hPa SW 6.4 km/h 27.4 km/h 91% 0.8 mm 26.00 W/m2
11:00 11.8 °C 10.4 °C 1003.9 hPa WSW 19.5 km/h 37.0 km/h 91% 0.8 mm 28.00 W/m2
11:05 11.9 °C 10.5 °C 1003.9 hPa SSW 28.8 km/h 37.0 km/h 91% 1.0 mm 25.00 W/m2
11:10 11.9 °C 10.5 °C 1003.6 hPa South 17.7 km/h 25.7 km/h 91% 1.0 mm 26.00 W/m2
11:15 11.9 °C 10.5 °C 1003.6 hPa SSW 27.4 km/h 27.4 km/h 91% 1.3 mm 25.00 W/m2
11:20 11.9 °C 10.5 °C 1003.3 hPa SSW 27.4 km/h 30.6 km/h 91% 1.3 mm 33.00 W/m2
11:25 11.9 °C 10.5 °C 1003.3 hPa SW 16.3 km/h 20.9 km/h 91% 1.5 mm 28.00 W/m2
11:30 11.9 °C 10.5 °C 1003.3 hPa WSW 13.0 km/h 22.5 km/h 91% 1.5 mm 18.00 W/m2
11:35 11.9 °C 10.5 °C 1003.3 hPa SW 25.9 km/h 33.8 km/h 91% 1.5 mm 21.00 W/m2
11:40 11.9 °C 10.5 °C 1002.9 hPa SSE 25.9 km/h 27.4 km/h 91% 1.5 mm 25.00 W/m2
11:45 11.9 °C 10.3 °C 1003.3 hPa South 19.5 km/h 29.0 km/h 90% 1.3 mm 28.00 W/m2
11:50 12.0 °C 10.4 °C 1002.9 hPa South 4.7 km/h 27.4 km/h 90% 1.5 mm 26.00 W/m2
11:55 12.0 °C 10.4 °C 1002.6 hPa SSW 27.4 km/h 35.4 km/h 90% 1.5 mm 26.00 W/m2
12:00 12.1 °C 10.5 °C 1002.6 hPa SSW 13.0 km/h 29.0 km/h 90% 1.5 mm 39.00 W/m2
12:05 12.1 °C 10.5 °C 1002.3 hPa SW 24.1 km/h 37.0 km/h 90% 1.5 mm 40.00 W/m2
12:10 12.1 °C 10.5 °C 1002.3 hPa SW 16.3 km/h 43.4 km/h 90% 1.5 mm 42.00 W/m2
12:15 12.2 °C 10.6 °C 1001.9 hPa South 28.8 km/h 35.4 km/h 90% 1.5 mm 44.00 W/m2
12:20 12.2 °C 10.6 °C 1001.9 hPa SSE 24.1 km/h 48.3 km/h 90% 1.5 mm 40.00 W/m2
12:25 12.2 °C 10.4 °C 1001.9 hPa South 16.3 km/h 51.5 km/h 89% 1.5 mm 40.00 W/m2
12:30 12.2 °C 10.4 °C 1001.6 hPa SSW 20.9 km/h 37.0 km/h 89% 1.5 mm 44.00 W/m2
12:35 12.2 °C 10.4 °C 1001.2 hPa SSW 19.5 km/h 35.4 km/h 89% 1.3 mm 42.00 W/m2
12:40 12.2 °C 10.4 °C 1001.2 hPa SW 19.5 km/h 30.6 km/h 89% 1.0 mm 40.00 W/m2
12:45 12.1 °C 10.5 °C 1001.2 hPa South 20.9 km/h 30.6 km/h 90% 1.3 mm 51.00 W/m2
12:50 12.1 °C 10.5 °C 1000.9 hPa South 11.1 km/h 20.9 km/h 90% 1.0 mm 44.00 W/m2
12:55 12.1 °C 10.5 °C 1000.9 hPa SW 24.1 km/h 37.0 km/h 90% 1.3 mm 28.00 W/m2
13:00 12.1 °C 10.5 °C 1000.6 hPa SW 14.3 km/h 38.6 km/h 90% 1.0 mm 19.00 W/m2
13:05 12.1 °C 10.5 °C 1000.6 hPa South 9.7 km/h 22.5 km/h 90% 1.3 mm 28.00 W/m2
13:10 12.1 °C 10.5 °C 1000.2 hPa SSE 11.1 km/h 46.7 km/h 90% 1.3 mm 21.00 W/m2
13:15 12.1 °C 10.5 °C 1000.2 hPa WSW 37.0 km/h 46.7 km/h 90% 1.5 mm 26.00 W/m2
13:20 12.1 °C 10.5 °C 1000.2 hPa SW 24.1 km/h 48.3 km/h 90% 1.3 mm 26.00 W/m2
13:25 12.1 °C 10.5 °C 1000.2 hPa SW 19.5 km/h 40.2 km/h 90% 1.5 mm 23.00 W/m2
13:30 12.1 °C 10.5 °C 999.9 hPa West 25.9 km/h 45.1 km/h 90% 1.5 mm 19.00 W/m2
13:35 12.2 °C 10.6 °C 1000.2 hPa SSW 19.5 km/h 54.7 km/h 90% 1.5 mm 25.00 W/m2
13:40 12.2 °C 10.4 °C 999.9 hPa SW 17.7 km/h 37.0 km/h 89% 1.5 mm 19.00 W/m2
13:45 12.2 °C 10.4 °C 1000.2 hPa SSW 28.8 km/h 45.1 km/h 89% 1.8 mm 26.00 W/m2
13:50 12.2 °C 10.4 °C 1000.2 hPa South 9.7 km/h 46.7 km/h 89% 2.0 mm 19.00 W/m2
13:55 12.2 °C 10.4 °C 999.9 hPa SW 19.5 km/h 27.4 km/h 89% 2.0 mm 14.00 W/m2
14:00 12.1 °C 10.5 °C 999.5 hPa SSW 30.6 km/h 41.8 km/h 90% 2.3 mm 12.00 W/m2
14:05 12.0 °C 10.4 °C 999.2 hPa WSW 16.3 km/h 24.1 km/h 90% 2.5 mm 16.00 W/m2
14:10 12.0 °C 10.4 °C 999.2 hPa SW 27.4 km/h 30.6 km/h 90% 2.5 mm 19.00 W/m2
14:15 11.9 °C 10.3 °C 998.9 hPa WSW 19.5 km/h 27.4 km/h 90% 2.3 mm 16.00 W/m2
14:20 11.9 °C 10.5 °C 998.9 hPa South 22.7 km/h 41.8 km/h 91% 2.5 mm 16.00 W/m2
14:25 12.0 °C 10.6 °C 998.5 hPa SW 16.3 km/h 46.7 km/h 91% 2.8 mm 30.00 W/m2
14:30 12.1 °C 10.5 °C 998.5 hPa South 16.3 km/h 35.4 km/h 90% 2.8 mm 21.00 W/m2
14:35 12.1 °C 10.5 °C 998.2 hPa WSW 50.0 km/h 49.9 km/h 90% 2.5 mm 19.00 W/m2
14:40 12.2 °C 10.6 °C 998.2 hPa South 16.3 km/h 27.4 km/h 90% 2.5 mm 19.00 W/m2
14:45 12.2 °C 10.6 °C 997.9 hPa SSW 27.4 km/h 38.6 km/h 90% 2.3 mm 28.00 W/m2
14:50 12.3 °C 10.7 °C 997.9 hPa SW 17.7 km/h 45.1 km/h 90% 2.3 mm 35.00 W/m2
14:55 12.3 °C 10.7 °C 997.5 hPa SSE 13.0 km/h 43.4 km/h 90% 1.8 mm 28.00 W/m2
15:00 12.3 °C 10.7 °C 997.2 hPa SSW 20.9 km/h 33.8 km/h 90% 1.5 mm 11.00 W/m2
15:05 12.3 °C 10.7 °C 997.2 hPa SW 11.1 km/h 29.0 km/h 90% 1.5 mm 14.00 W/m2
15:10 12.4 °C 10.8 °C 997.2 hPa SSW 32.0 km/h 41.8 km/h 90% 1.3 mm 9.00 W/m2
15:15 12.6 °C 10.8 °C 997.2 hPa WSW 16.3 km/h 46.7 km/h 89% 1.5 mm 18.00 W/m2
15:20 12.6 °C 10.8 °C 996.8 hPa SW 16.3 km/h 59.5 km/h 89% 1.5 mm 12.00 W/m2
15:25 12.6 °C 10.8 °C 997.2 hPa West 25.9 km/h 41.8 km/h 89% 1.0 mm 12.00 W/m2
15:30 12.6 °C 10.8 °C 996.8 hPa South 19.5 km/h 40.2 km/h 89% 0.8 mm 12.00 W/m2
15:35 12.6 °C 10.8 °C 996.5 hPa SSW 9.7 km/h 30.6 km/h 89% 0.8 mm 23.00 W/m2
15:40 12.6 °C 10.8 °C 996.5 hPa South 33.8 km/h 41.8 km/h 89% 0.8 mm 26.00 W/m2
15:45 12.4 °C 10.8 °C 996.5 hPa SSW 19.5 km/h 38.6 km/h 90% 0.5 mm 19.00 W/m2
15:50 12.5 °C 10.9 °C 996.5 hPa SSW 27.4 km/h 43.4 km/h 90% 0.5 mm 14.00 W/m2
15:55 12.5 °C 10.9 °C 996.5 hPa SSW 19.5 km/h 37.0 km/h 90% 0.5 mm 19.00 W/m2
16:00 12.6 °C 10.8 °C 996.2 hPa SSW 24.1 km/h 61.1 km/h 89% 0.5 mm 14.00 W/m2
16:05 12.7 °C 10.9 °C 995.8 hPa SW 33.8 km/h 45.1 km/h 89% 0.5 mm 14.00 W/m2
16:10 12.7 °C 10.8 °C 996.2 hPa SSW 22.7 km/h 57.9 km/h 88% 0.5 mm 12.00 W/m2
16:15 12.5 °C 10.7 °C 995.8 hPa SW 46.8 km/h 46.7 km/h 89% 0.3 mm 5.00 W/m2
16:20 12.4 °C 10.6 °C 995.8 hPa SW 14.3 km/h 37.0 km/h 89% 0.0 mm 7.00 W/m2
16:25 12.3 °C 10.7 °C 995.8 hPa SSW 40.4 km/h 49.9 km/h 90% 0.0 mm 5.00 W/m2
16:30 12.2 °C 10.6 °C 995.8 hPa SSW 33.8 km/h 53.1 km/h 90% 0.3 mm 7.00 W/m2
16:35 12.3 °C 10.7 °C 995.5 hPa SSW 17.7 km/h 46.7 km/h 90% 0.3 mm 5.00 W/m2
16:40 12.3 °C 10.7 °C 995.5 hPa South 28.8 km/h 45.1 km/h 90% 0.3 mm 7.00 W/m2
16:45 12.3 °C 10.7 °C 995.8 hPa SW 28.8 km/h 32.2 km/h 90% 0.3 mm 0.00 W/m2
16:50 12.3 °C 10.7 °C 995.8 hPa SSW 32.0 km/h 53.1 km/h 90% 0.3 mm 0.00 W/m2
16:55 12.3 °C 10.7 °C 995.5 hPa SW 32.0 km/h 46.7 km/h 90% 0.3 mm 0.00 W/m2
17:00 12.3 °C 10.7 °C 995.5 hPa WNW 24.1 km/h 41.8 km/h 90% 0.3 mm 0.00 W/m2
17:05 12.3 °C 10.7 °C 995.5 hPa SW 22.7 km/h 35.4 km/h 90% 0.3 mm 0.00 W/m2
17:10 12.2 °C 10.6 °C 995.5 hPa SW 25.9 km/h 45.1 km/h 90% 0.5 mm 0.00 W/m2
17:15 12.4 °C 10.8 °C 995.1 hPa SW 24.1 km/h 48.3 km/h 90% 0.5 mm 0.00 W/m2
17:20 12.4 °C 10.8 °C 995.1 hPa SW 35.2 km/h 48.3 km/h 90% 0.5 mm 0.00 W/m2
17:25 12.4 °C 10.8 °C 995.1 hPa West 41.7 km/h 43.4 km/h 90% 0.5 mm 0.00 W/m2
17:30 12.4 °C 10.8 °C 995.5 hPa SSW 16.3 km/h 41.8 km/h 90% 0.3 mm 0.00 W/m2
17:35 12.3 °C 10.9 °C 995.1 hPa SSW 33.8 km/h 40.2 km/h 91% 0.5 mm 0.00 W/m2
17:40 12.3 °C 10.9 °C 995.1 hPa SSW 20.9 km/h 38.6 km/h 91% 0.5 mm 0.00 W/m2
17:45 12.4 °C 11.0 °C 995.1 hPa SSW 35.2 km/h 45.1 km/h 91% 0.5 mm 0.00 W/m2
17:50 12.4 °C 10.8 °C 995.1 hPa SSW 9.7 km/h 40.2 km/h 90% 0.5 mm 0.00 W/m2
17:55 12.4 °C 10.8 °C 995.1 hPa SSW 13.0 km/h 45.1 km/h 90% 0.5 mm 0.00 W/m2
18:00 12.4 °C 11.0 °C 995.5 hPa SSW 43.6 km/h 51.5 km/h 91% 0.5 mm 0.00 W/m2
18:05 12.4 °C 11.0 °C 995.5 hPa SSW 22.7 km/h 41.8 km/h 91% 0.5 mm 0.00 W/m2
18:10 12.4 °C 11.0 °C 995.5 hPa SW 9.7 km/h 33.8 km/h 91% 0.3 mm 0.00 W/m2
18:15 12.6 °C 11.2 °C 995.1 hPa SW 11.1 km/h 33.8 km/h 91% 0.3 mm 0.00 W/m2
18:20 12.6 °C 11.2 °C 995.5 hPa WSW 13.0 km/h 30.6 km/h 91% 0.3 mm 0.00 W/m2
18:25 12.6 °C 11.2 °C 995.5 hPa SW 32.0 km/h 33.8 km/h 91% 0.3 mm 0.00 W/m2
18:30 12.6 °C 11.2 °C 995.8 hPa WSW 14.3 km/h 38.6 km/h 91% 0.3 mm 0.00 W/m2
18:35 12.6 °C 11.2 °C 995.8 hPa WSW 24.1 km/h 33.8 km/h 91% 0.0 mm 0.00 W/m2
18:40 12.6 °C 11.2 °C 995.8 hPa WSW 30.6 km/h 32.2 km/h 91% 0.3 mm 0.00 W/m2
18:45 12.7 °C 11.3 °C 995.8 hPa West 11.1 km/h 38.6 km/h 91% 0.3 mm 0.00 W/m2
18:50 12.8 °C 11.4 °C 995.8 hPa SSW 20.9 km/h 45.1 km/h 91% 0.3 mm 0.00 W/m2
18:55 12.7 °C 11.3 °C 995.8 hPa WSW 11.1 km/h 27.4 km/h 91% 0.3 mm 0.00 W/m2
19:00 12.8 °C 11.5 °C 996.2 hPa SW 45.1 km/h 46.7 km/h 92% 0.3 mm 0.00 W/m2
19:05 12.8 °C 11.5 °C 995.8 hPa WSW 32.0 km/h 32.2 km/h 92% 0.3 mm 0.00 W/m2
19:10 12.8 °C 11.5 °C 995.8 hPa SSW 13.0 km/h 35.4 km/h 92% 0.3 mm 0.00 W/m2
19:15 12.8 °C 11.5 °C 995.8 hPa SW 14.3 km/h 32.2 km/h 92% 0.3 mm 0.00 W/m2
19:20 12.8 °C 11.5 °C 995.8 hPa SW 17.7 km/h 32.2 km/h 92% 0.3 mm 0.00 W/m2
19:25 12.8 °C 11.5 °C 995.8 hPa SW 24.1 km/h 37.0 km/h 92% 0.3 mm 0.00 W/m2
19:30 12.8 °C 11.5 °C 996.2 hPa WSW 16.3 km/h 30.6 km/h 92% 0.3 mm 0.00 W/m2
19:35 12.8 °C 11.5 °C 996.2 hPa SW 22.7 km/h 25.7 km/h 92% 0.3 mm 0.00 W/m2
19:40 12.8 °C 11.5 °C 996.2 hPa SW 20.9 km/h 30.6 km/h 92% 0.0 mm 0.00 W/m2
19:45 12.9 °C 11.6 °C 995.8 hPa WSW 11.1 km/h 20.9 km/h 92% 0.0 mm 0.00 W/m2
19:50 12.9 °C 11.6 °C 995.8 hPa West 13.0 km/h 24.1 km/h 92% 0.0 mm 0.00 W/m2
19:56 13.0 °C 11.6 °C 995.8 hPa WSW 14.3 km/h 29.0 km/h 91% 0.0 mm 0.00 W/m2
20:00 13.1 °C 11.7 °C 995.8 hPa SW 7.9 km/h 22.5 km/h 91% 0.0 mm 0.00 W/m2
20:05 13.2 °C 11.8 °C 995.8 hPa SW 24.1 km/h 27.4 km/h 91% 0.0 mm 0.00 W/m2
20:10 13.3 °C 11.7 °C 995.8 hPa SSW 27.4 km/h 38.6 km/h 90% 0.0 mm 0.00 W/m2
20:15 13.4 °C 11.8 °C 995.8 hPa West 16.3 km/h 37.0 km/h 90% 0.3 mm 0.00 W/m2
20:20 13.4 °C 11.8 °C 996.2 hPa WNW 16.3 km/h 35.4 km/h 90% 0.3 mm 0.00 W/m2
20:25 13.3 °C 11.5 °C 996.2 hPa South 19.5 km/h 25.7 km/h 89% 0.3 mm 0.00 W/m2
20:30 13.3 °C 11.5 °C 996.2 hPa WSW 13.0 km/h 30.6 km/h 89% 0.3 mm 0.00 W/m2
20:35 13.3 °C 11.5 °C 996.2 hPa WSW 13.0 km/h 22.5 km/h 89% 0.3 mm 0.00 W/m2
20:40 13.3 °C 11.5 °C 995.8 hPa SW 11.1 km/h 20.9 km/h 89% 0.3 mm 0.00 W/m2
20:45 13.2 °C 11.4 °C 995.8 hPa SW 13.0 km/h 20.9 km/h 89% 0.3 mm 0.00 W/m2
20:50 13.2 °C 11.4 °C 995.8 hPa SW 9.7 km/h 22.5 km/h 89% 0.3 mm 0.00 W/m2
20:55 13.1 °C 11.5 °C 995.8 hPa SW 17.7 km/h 24.1 km/h 90% 0.3 mm 0.00 W/m2
21:00 13.2 °C 11.6 °C 995.8 hPa SSW 16.3 km/h 29.0 km/h 90% 0.3 mm 0.00 W/m2
21:05 13.1 °C 11.5 °C 995.8 hPa SW 20.9 km/h 20.9 km/h 90% 0.3 mm 0.00 W/m2
21:10 13.0 °C 11.4 °C 995.5 hPa SSW 13.0 km/h 25.7 km/h 90% 0.3 mm 0.00 W/m2
21:15 13.0 °C 11.4 °C 995.5 hPa SW 13.0 km/h 24.1 km/h 90% 0.0 mm 0.00 W/m2
21:20 12.9 °C 11.5 °C 995.5 hPa SW 9.7 km/h 17.7 km/h 91% 0.3 mm 0.00 W/m2
21:25 12.9 °C 11.5 °C 995.5 hPa SSW 22.7 km/h 24.1 km/h 91% 0.3 mm 0.00 W/m2
21:30 12.9 °C 11.5 °C 995.1 hPa South 9.7 km/h 25.7 km/h 91% 0.5 mm 0.00 W/m2
21:35 12.8 °C 11.4 °C 995.1 hPa ENE 16.3 km/h 22.5 km/h 91% 0.5 mm 0.00 W/m2
21:40 12.7 °C 11.4 °C 995.1 hPa SW 16.3 km/h 27.4 km/h 92% 0.8 mm 0.00 W/m2
21:45 12.7 °C 11.4 °C 995.1 hPa South 17.7 km/h 27.4 km/h 92% 1.0 mm 0.00 W/m2
21:50 12.8 °C 11.5 °C 994.8 hPa SSW 7.9 km/h 27.4 km/h 92% 1.0 mm 0.00 W/m2
21:55 12.8 °C 11.5 °C 994.8 hPa South 13.0 km/h 37.0 km/h 92% 1.3 mm 0.00 W/m2
22:00 12.8 °C 11.5 °C 994.5 hPa SSW 7.9 km/h 37.0 km/h 92% 1.3 mm 0.00 W/m2
22:05 12.7 °C 11.4 °C 994.1 hPa SSW 27.4 km/h 35.4 km/h 92% 1.5 mm 0.00 W/m2
22:10 12.7 °C 11.4 °C 994.1 hPa South 17.7 km/h 29.0 km/h 92% 1.5 mm 0.00 W/m2
22:15 12.8 °C 11.5 °C 994.1 hPa WSW 25.9 km/h 40.2 km/h 92% 1.5 mm 0.00 W/m2
22:20 12.8 °C 11.5 °C 994.1 hPa South 24.1 km/h 33.8 km/h 92% 1.3 mm 0.00 W/m2
22:25 12.9 °C 11.5 °C 993.8 hPa WSW 13.0 km/h 27.4 km/h 91% 1.3 mm 0.00 W/m2
22:30 12.9 °C 11.5 °C 993.8 hPa SW 13.0 km/h 38.6 km/h 91% 1.0 mm 0.00 W/m2
22:35 12.9 °C 11.5 °C 993.8 hPa South 9.7 km/h 35.4 km/h 91% 0.8 mm 0.00 W/m2
22:40 12.9 °C 11.5 °C 993.5 hPa West 24.1 km/h 45.1 km/h 91% 0.5 mm 0.00 W/m2
22:45 12.9 °C 11.5 °C 993.5 hPa SW 24.1 km/h 46.7 km/h 91% 0.5 mm 0.00 W/m2
22:50 12.9 °C 11.5 °C 993.1 hPa SW 24.1 km/h 48.3 km/h 91% 0.5 mm 0.00 W/m2
22:55 12.9 °C 11.5 °C 992.8 hPa SSW 20.9 km/h 40.2 km/h 91% 0.5 mm 0.00 W/m2
23:00 12.9 °C 11.5 °C 993.1 hPa SW 22.7 km/h 43.4 km/h 91% 0.5 mm 0.00 W/m2
23:05 12.9 °C 11.5 °C 993.1 hPa WSW 32.0 km/h 46.7 km/h 91% 0.3 mm 0.00 W/m2
23:10 12.9 °C 11.5 °C 992.4 hPa SSW 25.9 km/h 40.2 km/h 91% 0.3 mm 0.00 W/m2
23:15 12.9 °C 11.5 °C 992.4 hPa SW 14.3 km/h 48.3 km/h 91% 0.3 mm 0.00 W/m2
23:21 13.0 °C 11.6 °C 992.4 hPa SSW 24.1 km/h 43.4 km/h 91% 0.3 mm 0.00 W/m2
23:25 13.1 °C 11.7 °C 992.4 hPa SW 28.8 km/h 40.2 km/h 91% 0.3 mm 0.00 W/m2
23:30 13.1 °C 11.7 °C 992.4 hPa SSE 24.1 km/h 38.6 km/h 91% 0.3 mm 0.00 W/m2
23:35 13.1 °C 11.5 °C 992.4 hPa SW 22.7 km/h 40.2 km/h 90% 0.3 mm 0.00 W/m2
23:40 13.0 °C 11.6 °C 992.4 hPa SW 20.9 km/h 38.6 km/h 91% 0.3 mm 0.00 W/m2
23:45 13.0 °C 11.6 °C 992.4 hPa West 46.8 km/h 48.3 km/h 91% 0.3 mm 0.00 W/m2
23:50 13.0 °C 11.6 °C 992.4 hPa WSW 17.7 km/h 54.7 km/h 91% 0.0 mm 0.00 W/m2
23:55 12.9 °C 11.5 °C 992.4 hPa South 24.1 km/h 32.2 km/h 91% 0.0 mm 0.00 W/m2